Notices

What's New in latest Release from April 7th, 2021:

- Updated Glossary, including Speed of Maximum Gust, and Total Hourly Precipitation

- Updated national and regional climate services offices contacts and prices information

- Addition of station inventory lists for 1981-2010, 1971-2000, and 1961-1990 Normals.

If you haven't already, please take our survey and provide feedback about our website: https://eccc.sondage-survey.ca/f/LanguageSelection.aspx?s=442ca660-fcf1-47c0-95a9-59707d6fd709

Hourly Data Report for May 14, 2003

TORONTO CITY
ONTARIO

43°40'00.000" N
79°24'00.000" W
112.50 m
6158355
71508
XTO

Download Data

Hourly Data (May 2003)
Hourly Data Report for May 14, 2003
TIME
LST
Temp Definition
°C
Dew Point Definition
°C
Rel Hum Definition
%
Precip. Amount Definition
mm

Wind Dir Definition
10's deg

Wind Spd Definition
km/h
Visibility Definition
km
Stn Press Definition
kPa
Hmdx Definition


Wind Chill Definition


Weather Definition


00:00 10.4 6.9 79   LegendMM LegendMM LegendMM 99.75     LegendNANA
01:00 10.1 6.8 80   LegendMM LegendMM LegendMM 99.72     LegendNANA
02:00 9.1 6.6 84   LegendMM LegendMM LegendMM 99.71     LegendNANA
03:00 8.5 6.6 88   LegendMM LegendMM LegendMM 99.70     LegendNANA
04:00 8.9 6.5 85   LegendMM LegendMM LegendMM 99.72     LegendNANA
05:00
06:00
07:00 10.6 6.6 76   LegendMM LegendMM LegendMM 99.89     LegendNANA
08:00 11.9 5.8 66   LegendMM LegendMM LegendMM 99.89     LegendNANA
09:00 13.2 6.1 62   LegendMM LegendMM LegendMM 99.89     LegendNANA
10:00 14.2 6.3 59   LegendMM LegendMM LegendMM 99.88     LegendNANA
11:00 14.6 6.9 60   LegendMM LegendMM LegendMM 99.91     LegendNANA
12:00 14.3 5.9 57   LegendMM LegendMM LegendMM 99.94     LegendNANA
13:00 13.5 6.4 62   LegendMM LegendMM LegendMM 99.96     LegendNANA
14:00 15.2 6.5 56   LegendMM LegendMM LegendMM 99.97     LegendNANA
15:00 14.7 6.8 59   LegendMM LegendMM LegendMM 99.98     LegendNANA
16:00 14.8 5.9 55   LegendMM LegendMM LegendMM 100.01     LegendNANA
17:00 13.5 6.4 62   LegendMM LegendMM LegendMM 100.07     LegendNANA
18:00 13.2 5.9 61   LegendMM LegendMM LegendMM 100.08     LegendNANA
19:00 12.8 5.5 61   LegendMM LegendMM LegendMM 100.12     LegendNANA
20:00 12.5 5.4 62   LegendMM LegendMM LegendMM 100.14     LegendNANA
21:00 12.0 5.6 65   LegendMM LegendMM LegendMM 100.18     LegendNANA
22:00 11.7 5.8 67   LegendMM LegendMM LegendMM 100.20     LegendNANA
23:00 10.6 6.0 73   LegendMM LegendMM LegendMM 100.21     LegendNANA

Notes on Data Quality.

Legend

  • E = Estimated
  • M = Missing
  • NA = Not Available*
  • [empty] = Indicates an unobserved value
Date modified: